Souda, Greece

2:17 PM EET on February 11, 2016 (GMT +0200)
Souda Air Base

Weather History for LGSA - March, 2013

Change the Weather History Date:

Saturday, March 9, 2013

  Actual Average Record
Temperature  
Mean Temperature 60 °F -  
Max Temperature 69 °F 64 °F 71 °F (1998)
Min Temperature 50 °F 48 °F 35 °F (2011)
Degree Days  
Heating Degree Days 6    
Growing Degree Days 10 (Base 50)    
Moisture  
Dew Point 48 °F    
Average Humidity 70    
Maximum Humidity 94    
Minimum Humidity 34    
Precipitation  
Precipitation 0.00 in 0.09 in - ()
Sea Level Pressure  
Sea Level Pressure 29.87 in    
Wind  
Wind Speed 5 mph ()    
Max Wind Speed 21 mph    
Max Gust Speed 32 mph    
Visibility 6.2 miles    
Events      
Averages and records for this station are not official NWS values.
T = Trace of Precipitation, MM = Missing Value Source: Averaged Metar Reports

Daily Weather History Graph

Daily Weather History Graph

Search for Another Location

Airport or City:

Trip Planner

Search our weather history database for the weather conditions in past years. The results will help you decide how hot, cold, wet, or windy it might be!

Date:

Astronomy

Mar. 09, 2013 Rise Set
Actual Time 6:42 AM EET 6:25 PM EET
Civil Twilight 6:17 AM EET 6:51 PM EET
Nautical Twilight 5:47 AM EET 7:20 PM EET
Astronomical Twilight 5:18 AM EET 7:50 PM EET
Moon 4:50 AM EET (3/9) 4:10 PM EET (3/9)
Length of Visible Light 12h 34m
Length of Day
11h 43m
Waning Crescent, 7% of the Moon is Illuminated
Mar 9
Waning Crescent
Mar 11
New
Mar 19
First Quarter
Mar 27
Full
Apr 3
Last Quarter

Hourly Weather History & Observations

Time (EET) Temp. Dew Point Humidity Pressure Visibility Wind Dir Wind Speed Gust Speed Precip Events Conditions
12:20 AM 53.6 °F 51.8 °F 94% 29.92 in 6.2 mi Calm Calm - N/A   Partly Cloudy
12:50 AM 53.6 °F 51.8 °F 94% 29.92 in 6.2 mi Calm Calm - N/A   Partly Cloudy
1:20 AM 53.6 °F 51.8 °F 94% 29.92 in 6.2 mi Calm Calm - N/A   Partly Cloudy
1:50 AM 51.8 °F 48.2 °F 88% 29.92 in 6.2 mi Calm Calm - N/A   Partly Cloudy
2:00 AM 52 °F 48 °F 82% 29.93 in 6 mi Calm Calm - -   Scattered Clouds
2:20 AM 51.8 °F 48.2 °F 88% 29.92 in 6.2 mi Calm Calm - N/A   Partly Cloudy
2:50 AM 51.8 °F 48.2 °F 88% 29.92 in 6.2 mi Calm Calm - N/A   Partly Cloudy
3:20 AM 51.8 °F 48.2 °F 88% 29.92 in 6.2 mi Calm Calm - N/A   Partly Cloudy
3:50 AM 51.8 °F 48.2 °F 88% 29.92 in 6.2 mi Calm Calm - N/A   Partly Cloudy
4:20 AM 51.8 °F 48.2 °F 88% 29.92 in 6.2 mi Calm Calm - N/A   Partly Cloudy
4:50 AM 53.6 °F 50.0 °F 88% 29.89 in 6.2 mi Calm Calm - N/A   Scattered Clouds
5:20 AM 53.6 °F 50.0 °F 88% 29.89 in 6.2 mi Calm Calm - N/A   Mostly Cloudy
5:50 AM 53.6 °F 50.0 °F 88% 29.86 in 6.2 mi Calm Calm - N/A   Mostly Cloudy
6:20 AM 53.6 °F 50.0 °F 88% 29.86 in 6.2 mi Calm Calm - N/A   Scattered Clouds
6:50 AM 50.0 °F 48.2 °F 94% 29.89 in 6.2 mi Calm Calm - N/A   Scattered Clouds
7:20 AM 50.0 °F 48.2 °F 94% 29.89 in 6.2 mi Calm Calm - N/A   Scattered Clouds
7:50 AM 55.4 °F 50.0 °F 82% 29.89 in 6.2 mi ESE 4.6 mph - N/A   Mostly Cloudy
8:00 AM 55 °F 50 °F 77% 29.89 in 6 mi ESE 4.6 mph - -   Scattered Clouds
8:20 AM 55.4 °F 50.0 °F 82% 29.89 in 6.2 mi Calm Calm - N/A   Mostly Cloudy
8:50 AM 57.2 °F 50.0 °F 77% 29.89 in 6.2 mi ENE 4.6 mph - N/A   Mostly Cloudy
9:20 AM 59.0 °F 48.2 °F 67% 29.89 in 6.2 mi ENE 6.9 mph - N/A   Scattered Clouds
9:50 AM 62.6 °F 48.2 °F 59% 29.89 in 6.2 mi ENE 4.6 mph - N/A   Partly Cloudy
10:50 AM 62.6 °F 50.0 °F 63% 29.89 in 6.2 mi East 9.2 mph - N/A   Partly Cloudy
11:20 AM 62.6 °F 50.0 °F 63% 29.89 in 6.2 mi East 9.2 mph - N/A   Partly Cloudy
11:50 AM 62.6 °F 50.0 °F 63% 29.89 in 6.2 mi East 9.2 mph - N/A   Partly Cloudy
12:20 PM 62.6 °F 50.0 °F 63% 29.89 in 6.2 mi East 9.2 mph - N/A   Partly Cloudy
12:50 PM 66.2 °F 50.0 °F 56% 29.86 in 6.2 mi ENE 6.9 mph - N/A   Partly Cloudy
1:50 PM 68.0 °F 46.4 °F 46% 29.83 in 6.2 mi West 13.8 mph 25.3 mph N/A   Partly Cloudy
2:00 PM 69 °F 47 °F 34% 29.83 in 6 mi West 13.8 mph - -   Scattered Clouds
2:20 PM 68.0 °F 46.4 °F 46% 29.83 in 6.2 mi West 16.1 mph 27.6 mph N/A   Partly Cloudy
2:50 PM 69.8 °F 46.4 °F 43% 29.83 in 6.2 mi WSW 11.5 mph 23.0 mph N/A   Partly Cloudy
3:20 PM 69.8 °F 46.4 °F 43% 29.83 in 6.2 mi West 18.4 mph 32.2 mph N/A   Partly Cloudy
3:50 PM 68.0 °F 42.8 °F 40% 29.83 in 6.2 mi West 20.7 mph 32.2 mph N/A   Partly Cloudy
4:20 PM 68.0 °F 42.8 °F 40% 29.83 in 6.2 mi West 19.6 mph 31.1 mph N/A   Partly Cloudy
4:50 PM 68.0 °F 42.8 °F 40% 29.80 in 6.2 mi WSW 20.7 mph 32.2 mph N/A   Partly Cloudy
5:20 PM 68.0 °F 42.8 °F 40% 29.80 in 6.2 mi WNW 19.6 mph - N/A   Partly Cloudy
5:50 PM 64.4 °F 51.8 °F 64% 29.83 in 6.2 mi WNW 13.8 mph - N/A   Partly Cloudy
6:20 PM 60.8 °F 50.0 °F 68% 29.83 in 6.2 mi West 18.4 mph - N/A   Partly Cloudy
6:50 PM 59.0 °F 51.8 °F 77% 29.83 in 6.2 mi West 19.6 mph - N/A   Partly Cloudy
7:20 PM 59.0 °F 51.8 °F 77% 29.83 in 6.2 mi WNW 17.3 mph - N/A   Partly Cloudy
7:50 PM 59.0 °F 51.8 °F 77% 29.83 in 6.2 mi WNW 11.5 mph - N/A   Partly Cloudy
8:00 PM 59 °F 51 °F 68% 29.85 in 6 mi WNW 11.5 mph - -   Scattered Clouds
8:20 PM 59.0 °F 51.8 °F 77% 29.83 in 6.2 mi NNW 5.8 mph - N/A   Partly Cloudy
8:50 PM 59.0 °F 48.2 °F 67% 29.86 in 6.2 mi WNW 8.1 mph - N/A   Partly Cloudy
9:20 PM 59.0 °F 48.2 °F 67% 29.86 in 6.2 mi WNW 16.1 mph - N/A   Partly Cloudy
9:50 PM 59.0 °F 44.6 °F 59% 29.86 in 6.2 mi WNW 18.4 mph - N/A   Partly Cloudy
10:20 PM 59.0 °F 44.6 °F 59% 29.86 in 6.2 mi WNW 16.1 mph - N/A   Partly Cloudy
10:50 PM 59.0 °F 44.6 °F 59% 29.86 in 6.2 mi NNW 9.2 mph - N/A   Partly Cloudy
11:20 PM 59.0 °F 44.6 °F 59% 29.86 in 6.2 mi West 13.8 mph - N/A   Partly Cloudy
11:50 PM 59.0 °F 44.6 °F 59% 29.86 in 6.2 mi West 16.1 mph - N/A   Partly Cloudy